Starlink 31201

operational
NORAD ID: 58870 Int'l Des: 2024-019 Owner: SPXS Country: US Constellation: starlink
LEOCIRCULAR

Starlink 31201について

説明を読み込み中...

リアルタイム位置

3D地球を読み込み中...

次回通過

高度履歴

Altitude vs Time

uPlot chart will show altitude changes over time

軌道要素

1 58870U 24019T 25259.41210088 .00001444 00000-0 61962-4 0 9992
2 58870 42.9987 152.7445 0000604 28.8816 331.2069 15.27583092 92412
Epoch: Sep 16, 2025 • Age: 38 hours

現在のステータス

高度 487.4 km
速度 7.62 km/s
衛星直下点 -20.30°S, 132.23°E
打ち上げ日 Jan 29, 2024
運用期間 1.6 years
タイプ internet

技術仕様

分類 Payload
質量 730.00 kg
乾燥質量 700.00 kg
総質量 730.00 kg
長さ 0.30 m
直径 4.10 m
スパン 29.00 m
形状 Box + pan
製造者 SPXS
バスタイプ Starlink V2M
フェーズステータス In Orbit
所有者/国 SPXS/US

大規模コンステレーション

Loading constellations...